User: anonymous   Login
Location: Brno
(49.2000°N, 16.6330°E)
Time: 22:00:17
(UTC+01:00)
Language:

Cosmos 2227 - Orbit

View from above orbital plane
View from above orbital plane
View from above satellite
View from above satellite

Ground track
Ground track

The orbit data is extracted from the following two-line orbital elements,

1 22284U 92093A   15027.14058316  .00000069  00000-0  62225-4 0   777
2 22284 070.9792 263.5027 0018076 046.1109 120.4171 14.13218437139443
Epoch (UTC): 27 January 2015 03:22:26
Eccentricity: 0.0018076
inclination: 70.9792°
perigee height: 835 km
apogee height: 861 km
right ascension of ascending node: 263.5027°
argument of perigee: 46.1109°
revolutions per day: 14.13218437
mean anomaly at epoch: 120.4171°
orbit number at epoch: 13944

The dashed part of the orbit path shows where the satellite is in the earth's shadow,  

DLR